Location: Haliburton Scout Reserve
(45.0900°N, 78.3200°W)
Time: 16:28:13
(UTC-04:00)

JY1SAT - Pass Details

Date: 24 June 2024
Orbit: 536 x 549 km, 97.5° (Epoch: 11 July)

Event Time Altitude Azimuth Distance (km) Brightness Sun altitude
Exits shadow 23:18:10 - 219° (SW) 2,246 ? -16.5°
Reaches altitude 10° 23:19:45 10° 235° (SW) 1,819 ? -16.6°
Maximum altitude 23:21:56 14° 269° (W) 1,559 ? -16.8°
Drops below altitude 10° 23:24:09 10° 304° (WNW) 1,832 ? -16.9°
Sets 23:27:10 0° 329° (NNW) 2,734 ? -17.2°
